Home   Weather   Trenton   Past weeks
Flag for USA

Past Weather in Trenton, New Jersey, USA — Yesterday and Last 2 Weeks

Now
61 °F

Passing clouds.


Feels Like: 61 °F
Forecast: 78 / 59 °F
Wind: 5 mph from Southwest

Location: Mercer County Airport

Current Time: May 23, 2019 at 12:56:21 am

Latest Report: May 22, 2019 at 11:53 pm


Visibility: 10 mi

Pressure: 30.21 "Hg

Humidity: 58%

Dew Point: 46 °F

Location of TrentonLocation

Past Weather in Trenton — Graph

°F

Trenton Temperature Yesterday

Maximum temperature yesterday: 74 °F (at 4:53 pm)
Minimum temperature yesterday: 49 °F (at 5:53 am)
Average temperature yesterday: 63 °F

High & Low Weather Summary for the Past Weeks

 TemperatureHumidityPressure
High86 °F (May 20, 3:53 pm)100% (May 7, 11:53 pm)30.28 "Hg (May 7, 11:53 pm)
Low41 °F (May 15, 5:53 am)31% (May 21, 6:53 pm)29.69 "Hg (May 20, 6:53 pm)
Average59 °F75%29.94 "Hg
* Reported May 7 10:25 pm — May 22 10:53 pm, Trenton. Weather by CustomWeather, © 2019

Note: Actual official high and low records may vary slightly from our data, if they occured in-between our weather recording intervals... More about our weather records

Advertising

Trenton Weather History for the Previous 24 Hours

Scroll right to see more
 ConditionsComfort  
Time TempWeatherWind HumidityBarometerVisibility
10:53 pm
Wed, May 22
63 °FPassing clouds.5 mph56%30.22 "Hg10 mi
9:53 pm64 °FClear.5 mph52%30.21 "Hg10 mi
8:53 pm66 °FClear.9 mph47%30.20 "Hg10 mi
7:53 pm71 °FSunny.No wind32%30.18 "Hg10 mi
6:53 pm72 °FSunny.3 mph31%30.18 "Hg10 mi
5:53 pm72 °FSunny.5 mph31%30.19 "Hg10 mi
4:53 pm74 °FSunny.9 mph31%30.20 "Hg10 mi
3:53 pm73 °FSunny.7 mph33%30.19 "Hg10 mi
2:53 pm72 °FSunny.No wind34%30.20 "Hg10 mi
1:53 pm71 °FSunny.No wind36%30.21 "Hg10 mi
12:53 pm70 °FSunny.No wind35%30.22 "Hg10 mi
11:53 am68 °FSunny.10 mph39%30.23 "Hg10 mi
10:53 am66 °FSunny.No wind37%30.24 "Hg10 mi
9:53 am65 °FSunny.7 mph40%30.24 "Hg10 mi
8:53 am62 °FSunny.9 mph44%30.23 "Hg10 mi
7:53 am56 °FSunny.7 mph62%30.22 "Hg10 mi
6:53 am52 °FSunny.6 mph69%30.20 "Hg10 mi
5:53 am49 °FSunny.5 mph74%30.17 "Hg10 mi
4:53 am50 °FClear.5 mph68%30.15 "Hg10 mi
3:53 am50 °FClear.No wind66%30.15 "Hg10 mi
2:53 am51 °FClear.3 mph63%30.14 "Hg10 mi
1:53 am55 °FClear.No wind53%30.13 "Hg10 mi
12:53 am55 °FClear.5 mph53%30.11 "Hg10 mi
Weather by CustomWeather, © 2019

See weather overview